Craig, CO

6:12 PM MDT on October 20, 2017 (GMT -0600)
Craig-Moffat

Weather History for KCAG - January, 2013

Change the Weather History Date:

Saturday, January 12, 2013

  Actual Average Record
Temperature  
Mean Temperature -6 °F 15 °F  
Max Temperature 5 °F 29 °F 42 °F (1999)
Min Temperature -18 °F 1 °F -22 °F (2016)
Degree Days  
Heating Degree Days 71 50  
Month to date heating degree days 753 600  
Since 1 July heating degree days 3924 4156  
Cooling Degree Days 0 0  
Month to date cooling degree days 0 0  
Year to date cooling degree days 0 0  
Moisture  
Dew Point -10 °F    
Average Humidity 81    
Maximum Humidity 87    
Minimum Humidity 75    
Precipitation  
Precipitation T in 0.03 in 0.23 in (2007)
Month to date precipitation 0.19 0.32  
Year to date precipitation 0.19 0.32  
Sea Level Pressure  
Sea Level Pressure 30.13 in    
Wind  
Wind Speed 1 mph (SE)    
Max Wind Speed 7 mph    
Max Gust Speed 7 mph    
Visibility 8 miles    
Events Snow    
T = Trace of Precipitation, MM = Missing Value Source: NWS Daily Summary

Daily Weather History Graph

Daily Weather History Graph

Search for Another Location

Airport or City:

Trip Planner

Search our weather history database for the weather conditions in past years. The results will help you decide how hot, cold, wet, or windy it might be!

Date:

Astronomy

Jan. 12, 2013 Rise Set
Actual Time 7:32 AM MST 5:05 PM MST
Civil Twilight 7:02 AM MST 5:35 PM MST
Nautical Twilight 6:28 AM MST 6:09 PM MST
Astronomical Twilight 5:55 AM MST 6:41 PM MST
Moon 7:52 AM MST (1/12) 6:38 PM MST (1/12)
Length of Visible Light 10h 33m
Length of Day
9h 32m
New Moon, 1% of the Moon is Illuminated
Jan 12
New Moon
Jan 18
First Quarter
Jan 26
Full
Feb 3
Last Quarter
Feb 10
New

Hourly Weather History & Observations

Time (MST) Temp. Windchill Dew Point Humidity Pressure Visibility Wind Dir Wind Speed Gust Speed Precip Events Conditions
12:53 AM -2.0 °F -12.2 °F -8.0 °F 76% 30.10 in 10.0 mi ESE 4.6 mph - N/A   Mostly Cloudy
1:53 AM -4.0 °F - -8.0 °F 83% 30.13 in 10.0 mi Calm Calm - N/A   Scattered Clouds
2:53 AM -6.0 °F - -11.9 °F 75% 30.14 in 10.0 mi Calm Calm - N/A   Overcast
3:53 AM -7.1 °F -15.9 °F -11.9 °F 79% 30.12 in 10.0 mi ESE 3.5 mph - N/A   Overcast
4:13 AM -9.4 °F - -14.8 °F 77% 29.83 in 10.0 mi Calm Calm - N/A   Scattered Clouds
4:53 AM -11.0 °F - -15.0 °F 83% 30.14 in 10.0 mi Calm Calm - N/A   Clear
5:53 AM -11.9 °F - -16.1 °F 82% 30.16 in 10.0 mi Calm Calm - N/A   Clear
6:35 AM -16.6 °F - -20.2 °F 84% 29.86 in 10.0 mi Calm Calm - N/A   Mostly Cloudy
6:53 AM -15.0 °F - -18.9 °F 82% 30.20 in 10.0 mi Calm Calm - N/A   Overcast
7:39 AM -11.2 °F - -14.8 °F 84% 29.89 in 6.0 mi Calm Calm - 0.00 in   Overcast
7:53 AM -9.9 °F - -15.0 °F 78% 30.22 in 5.0 mi Calm Calm - 0.00 in   Haze
8:03 AM -9.4 °F -18.6 °F -14.8 °F 77% 29.90 in 3.0 mi ENE 3.5 mph - 0.00 in Snow Light Snow
8:30 AM -11.2 °F - -16.6 °F 77% 29.90 in 7.0 mi Calm Calm - 0.00 in   Overcast
8:53 AM -9.9 °F - -14.1 °F 82% 30.26 in 5.0 mi Calm Calm - 0.00 in Snow Light Snow
9:53 AM -6.0 °F - -8.0 °F 91% 30.29 in 3.0 mi Calm Calm - 0.00 in   Overcast
10:06 AM -7.6 °F - -7.6 °F 100% 29.92 in 4.0 mi Calm Calm - N/A   Overcast
10:33 AM -4.0 °F - -5.8 °F 92% 29.92 in 9.0 mi Calm Calm - N/A   Overcast
10:53 AM -2.9 °F - -7.1 °F 82% 30.27 in 9.0 mi Calm Calm - N/A   Overcast
11:43 AM -0.4 °F - -5.8 °F 78% 29.90 in 4.0 mi Calm Calm - 0.00 in   Haze
11:53 AM -0.0 °F - -5.1 °F 79% 30.25 in 7.0 mi Calm Calm - 0.00 in   Overcast
12:11 PM 1.4 °F - -4.0 °F 78% 29.89 in 10.0 mi Calm Calm - N/A   Overcast
12:53 PM 3.9 °F - -2.9 °F 73% 30.20 in 10.0 mi Calm Calm - N/A   Scattered Clouds
1:53 PM 3.9 °F - -2.9 °F 73% 30.21 in 10.0 mi Calm Calm - N/A   Scattered Clouds
2:53 PM 1.0 °F -6.7 °F -5.1 °F 75% 30.25 in 10.0 mi West 3.5 mph - N/A   Partly Cloudy
3:53 PM -0.0 °F -9.9 °F -5.1 °F 79% 30.26 in 10.0 mi SW 4.6 mph - N/A   Clear
4:49 PM 1.4 °F - -2.2 °F 85% 29.89 in 2.5 mi Calm Calm - 0.00 in Snow Light Snow
4:53 PM 3.0 °F - -2.9 °F 76% 30.27 in 2.5 mi Calm Calm - 0.00 in Snow Light Snow
5:06 PM 3.2 °F - -2.2 °F 78% 29.89 in 4.0 mi Calm Calm - 0.00 in   Haze
5:53 PM 1.4 °F - -4.0 °F 78% 29.90 in 9.0 mi Calm Calm - N/A   Overcast
6:53 PM -2.9 °F -13.3 °F -7.1 °F 82% 30.32 in 10.0 mi ESE 4.6 mph - N/A   Overcast
7:53 PM -6.0 °F - -9.9 °F 83% 30.32 in 5.0 mi Calm Calm - 0.00 in   Overcast
8:53 PM -6.0 °F - -11.9 °F 75% 30.32 in 9.0 mi Calm Calm - N/A   Overcast
9:53 PM -7.6 °F - -11.2 °F 84% 29.91 in 10.0 mi Calm Calm - N/A   Overcast
10:53 PM -7.1 °F - -11.9 °F 79% 30.30 in 6.0 mi Calm Calm - 0.00 in   Haze
11:53 PM -8.0 °F - -14.1 °F 75% 30.30 in 8.0 mi Calm Calm - 0.00 in   Overcast